Elko, NV

3:19 AM PDT on May 27, 2017 (GMT -0700)
Elko Regional

Weather History for KEKO - April, 2013

Change the Weather History Date:

Tuesday, April 30, 2013

  Actual Average Record
Temperature  
Mean Temperature 47 °F 49 °F  
Max Temperature 59 °F 64 °F 86 °F (1981)
Min Temperature 34 °F 34 °F 14 °F (1972)
Degree Days  
Heating Degree Days 18 16  
Month to date heating degree days 611 594  
Since 1 July heating degree days 6400 6571  
Cooling Degree Days 0 0  
Month to date cooling degree days 0 0  
Year to date cooling degree days 0 0  
Moisture  
Dew Point 10 °F    
Average Humidity 25    
Maximum Humidity 40    
Minimum Humidity 10    
Precipitation  
Precipitation 0.00 in 0.03 in 0.61 in (1939)
Month to date precipitation 0.48 0.97  
Year to date precipitation 2.20 3.93  
Snow  
Snow 0.00 in 0.00 in 0.50 in (1948)
Month to date snowfall 1.3 3.2  
Since 1 July snowfall 42.2 40.8  
Snow Depth 0.00 in    
Sea Level Pressure  
Sea Level Pressure 29.90 in    
Wind  
Wind Speed 10 mph (NW)    
Max Wind Speed 26 mph    
Max Gust Speed 32 mph    
Visibility 10 miles    
Events      
T = Trace of Precipitation, MM = Missing Value Source: NWS Daily Summary

Daily Weather History Graph

Daily Weather History Graph

Search for Another Location

Airport or City:

Trip Planner

Search our weather history database for the weather conditions in past years. The results will help you decide how hot, cold, wet, or windy it might be!

Date:

Astronomy

Apr. 30, 2013 Rise Set
Actual Time 5:42 AM PDT 7:38 PM PDT
Civil Twilight 5:12 AM PDT 8:08 PM PDT
Nautical Twilight 4:36 AM PDT 8:45 PM PDT
Astronomical Twilight 3:57 AM PDT 9:24 PM PDT
Moon 12:06 AM PDT (4/30) 10:15 AM PDT (4/30)
Length of Visible Light 14h 55m
Length of Day
13h 56m
Waning Gibbous, 69% of the Moon is Illuminated
Apr 30
Waning Gibbous
May 2
Last Quarter
May 9
New
May 17
First Quarter
May 24
Full

Hourly Weather History & Observations

Time (PDT) Temp. Windchill Dew Point Humidity Pressure Visibility Wind Dir Wind Speed Gust Speed Precip Events Conditions
12:56 AM 46.9 °F - 21.0 °F 36% 29.78 in 10.0 mi South 5.8 mph - N/A   Clear
1:56 AM 48.0 °F - 21.0 °F 34% 29.77 in 10.0 mi NW 8.1 mph - N/A   Clear
2:56 AM 46.9 °F - 18.0 °F 32% 29.76 in 10.0 mi NNW 9.2 mph - N/A   Clear
3:56 AM 43.0 °F - 17.1 °F 35% 29.78 in 10.0 mi Calm Calm - N/A   Clear
4:56 AM 44.1 °F 40.8 °F 14.0 °F 30% 29.79 in 10.0 mi NNE 5.8 mph - N/A   Clear
5:56 AM 37.9 °F - 16.0 °F 41% 29.82 in 10.0 mi Calm Calm - N/A   Clear
6:56 AM 42.1 °F 40.2 °F 16.0 °F 35% 29.84 in 10.0 mi SSW 3.5 mph - N/A   Clear
7:56 AM 48.9 °F - 12.9 °F 24% 29.85 in 10.0 mi North 8.1 mph - N/A   Clear
11:56 AM 55.0 °F - 16.0 °F 22% 29.88 in 10.0 mi WSW 9.2 mph 19.6 mph N/A   Clear
12:56 PM 57.0 °F - 7.0 °F 14% 29.88 in 10.0 mi WSW 17.3 mph 31.1 mph N/A   Clear
1:56 PM 57.0 °F - 10.0 °F 15% 29.89 in 10.0 mi West 17.3 mph 26.5 mph N/A   Clear
2:56 PM 57.0 °F - 10.0 °F 15% 29.89 in 10.0 mi WSW 15.0 mph 25.3 mph N/A   Clear
3:56 PM 57.0 °F - 8.1 °F 14% 29.91 in 10.0 mi NW 10.4 mph 19.6 mph N/A   Clear
4:56 PM 57.9 °F - 6.1 °F 13% 29.91 in 10.0 mi WNW 12.7 mph 26.5 mph N/A   Clear
5:56 PM 57.0 °F - 1.0 °F 10% 29.94 in 10.0 mi NNW 16.1 mph 25.3 mph N/A   Clear
6:56 PM 52.0 °F - -0.9 °F 11% 29.97 in 10.0 mi North 18.4 mph 26.5 mph N/A   Clear
7:56 PM 48.0 °F - -0.9 °F 13% 30.01 in 10.0 mi NNW 18.4 mph 24.2 mph N/A   Clear
8:56 PM 45.0 °F 40.1 °F -2.0 °F 14% 30.07 in 10.0 mi North 9.2 mph 18.4 mph N/A   Clear
10:56 PM 42.1 °F 36.1 °F 1.9 °F 19% 30.13 in 10.0 mi North 10.4 mph - N/A   Clear
11:56 PM 37.9 °F 32.7 °F 3.0 °F 23% 30.16 in 10.0 mi ENE 6.9 mph - N/A   Clear